Welcome to the New NWS' Forecast!
Most changes are behind the scenes, but click here for differences you might notice.

Regional Weather Roundup (RWR)

Issued by National Weather Service (NWS)

                            
000
ASUS42 KTBW 150216
RWRFL 
FLORIDA REGIONAL WEATHER ROUNDUP
NATIONAL WEATHER SERVICE TAMPA BAY RUSKIN FL
900 PM EST WED NOV 14 2018

NOTE: "FAIR" INDICATES FEW OR NO CLOUDS BELOW 12,000 FEET WITH NO
SIGNIFICANT WEATHER AND/OR OBSTRUCTIONS TO VISIBILITY.

FLZ001>010-012>015-112-114-115-150300-
PANHANDLE FLORIDA
  
CITY           SKY/WX    TMP DP  RH WIND       PRES   REMARKS
PENSACOLA      LGT RAIN  42  40  92 N14       30.21R WCI  35          
PENSACOLA NAS  LGT RAIN  43  41  93 N13       30.21S WCI  36          
MILTON NAS     LGT RAIN  42  41  96 VRB5      30.21  WCI  39          
CRESTVIEW      LGT RAIN  45  42  89 N10G18    30.21R WCI  40          
DUKE FIELD     LGT RAIN  44  43  95 N10       30.18R WCI  39          
VALPARAISO     LGT RAIN  45  44  94 NW12      30.19F WCI  40          
MARY ESTHER    LGT RAIN  44  42  92 N15G24    30.18F WCI  37          
PANAMA CITY    LGT RAIN  52  50  93 NW9       30.13F                  
TYNDALL AFB    LGT RAIN  53  52  97 N6        30.15F                  
APALACHICOLA   LGT RAIN  54  52  93 N13       30.10F                  

STATION/POSITION SKY/WX   TEMP    WIND        PRES    WAVE   SWELL
                          AIR SEA DIR/SP/G            HT/PER HT/PER
                          (F)     (DEG/KT/KT) (MB)    (FT/S) (FT/S)
30.1N   87.6W              47                 1023.6R   3/ 5
29.2N   88.2W                 77  340/ 17/ 23 1023.5
PANAMA CITY BEAC NOT AVBL
TOWER C                    58     360/ 20/ 22 1019.5R

$$
FLZ011-016>038-118-127-128-134-139-239-150300-
NORTH FLORIDA
  
CITY           SKY/WX    TMP DP  RH WIND       PRES   REMARKS
MARIANNA       RAIN      57  53  86 NE7       30.15F                  
TALLAHASSEE    RAIN      57  57 100 NW5       30.14R FOG              
PERRY          HVY RAIN  59  58  97 NW13      30.11R                  
LIVE OAK       CLOUDY    59  59 100 N7        30.05F FOG              
CROSS CITY     RAIN      64  63  97 NE6       30.03S FOG              
LAKE CITY      LGT RAIN  61  61 100 NE7       30.05S                  
GAINESVILLE    LGT RAIN  68  66  93 NE8       30.05S FOG              
WILLISTON        N/A    N/A N/A N/A MISG        N/A                   
MAYPORT NAS    CLOUDY    72  71  97 NE20G30   30.02F                  
JACKSONVILLE   CLOUDY    69  66  90 NE16      30.03F                  
JAX NAS        LGT RAIN  71  70  96 NE15      30.03F FOG              
JAX CECIL      CLOUDY    70  68  94 NE13      30.02F FOG              
FERNANDINA BEA CLOUDY    70  67  91 NE17      30.04F                  
ST AUGUSTINE   CLOUDY    73  73 100 NE14      30.02S                  
PALM COAST     FAIR      73  73  98 CALM      30.00F FOG              

STATION/POSITION SKY/WX   TEMP    WIND        PRES    WAVE   SWELL
                          AIR SEA DIR/SP/G            HT/PER HT/PER
                          (F)     (DEG/KT/KT) (MB)    (FT/S) (FT/S)
SHELL POINT      NOT AVBL
KEATON BEACH               59     320/ 16/ 21 1018.8R
CEDAR KEY                  68      50/ 11/ 13 1016.0F
FERNANDINA                    71   20/  9/ 17 1018.3F
30.7N   81.3W                 71                N/A     8/ 8   2/11
MAYPORT                    71 73   40/ 21/ 25 1016.9F
31.4N   80.9W              69 71  210/ 10/ 19 1017.6F   9/ 8   8/ 8
ST AUGUSTINE               75 74   40/  8/  9 1016.2S

$$
FLZ040-043>046-052-053-057-058-063-144-150300-
INTERIOR CENTRAL FLORIDA
  
CITY           SKY/WX    TMP DP  RH WIND       PRES   REMARKS
OCALA          LGT RAIN  69  68  96 VRB6      30.00F                  
LEESBURG       LGT RAIN  73  71  93 VRB6G29   30.01R                  
SANFORD        FAIR      75  74  96 CALM      30.00S                  
ORLANDO EXEC   FAIR      75  74  96 E6        30.00S                  
ORLANDO INTL   MOCLDY    75  72  90 E5        30.00R                  
KISSIMMEE      FAIR      77  73  87 SE5       30.01R                  
WINTER HAVEN   FAIR      79  73  82 SE14      30.00S                  
LAKELAND       HVY RAIN  79  72  78 S12       30.00R                  
BARTOW         FAIR      75  75 100 E9        29.98F                  
SEBRING        RAIN      78  74  86 SE5       30.01R                  
OKEECHOBEE     FAIR      73  72  94 SE3       30.00S                  

$$
FLZ041-047-054-059-064-141-147-150300-
EAST CENTRAL FLORIDA
  
CITY           SKY/WX    TMP DP  RH WIND       PRES   REMARKS
DAYTONA BEACH  CLOUDY    77  76  96 CALM      30.00S                  
DELAND         MOCLDY    72  72 100 CALM      30.00S                  
NEW SMYRNA BEA MOCLDY    77  73  88 E5        30.01S                  
JFK SPACE CTR  FAIR      77  74  91 CALM      29.99S                  
TITUSVILLE     PTCLDY    81  79  94 CALM      30.01R                  
CAPE CANAVERAL FAIR      78  74  90 SE8       29.98S                  
PATRICK AFB    FAIR      79  78  98 SE9       29.99S                  
MELBOURNE      FAIR      80  75  84 SE13      29.99S                  
VERO BEACH     FAIR      78  73  84 SE12      30.00S                  
FT PIERCE      FAIR      78  74  87 SE7       30.00S                  
STUART         PTCLDY    79  73  83 SE6       30.02R                  

STATION/POSITION SKY/WX   TEMP    WIND        PRES    WAVE   SWELL
                          AIR SEA DIR/SP/G            HT/PER HT/PER
                          (F)     (DEG/KT/KT) (MB)    (FT/S) (FT/S)
28.5N   80.2W              81     120/ 14/ 17 1015.9F   4/ 8   3/ 8
28.9N   78.5W              81 82  130/ 12/ 14 1017.4S
TRIDENT PIER               78 80  130/  6/  9 1017.1R
28.4N   80.5W                 79                N/A     3/ 8
27.5N   80.2W                 80                N/A     3/ 8

$$
FLZ050-056-061-142-242-148-248-149-249-151-251-155-255-
160-260-150300-
WEST CENTRAL FLORIDA
  
CITY           SKY/WX    TMP DP  RH WIND       PRES   REMARKS
CRYSTAL RIVER  LGT RAIN  70  68  94 N8        30.00R                  
BROOKSVILLE    FAIR      73  71  93 NE8       29.98F                  
CLEARWATER AIR MOCLDY    75  72  88 CALM      29.97S                  
ST PETE CLEARW FAIR      77  74  90 CALM      29.97F                  
TAMPA INTL     CLOUDY    79  73  82 S3        29.98S                  
TAMPA EXEC     MOCLDY    72  72 100 CALM      29.99F                  
PLANT CITY     LGT RAIN  75  72  88 SE5       30.01S                  
MACDILL AFB    FAIR      77  72  85 SE7       29.98S                  
PETER O KNIGHT CLOUDY    75  75 100 S3        29.98F                  
ST PETERSBURG  MOCLDY    79  74  84 S12       29.96S                  
SARASOTA       MOCLDY    78  73  84 SE7       29.96S                  
VENICE         MOCLDY    79  75  89 SE6       29.99S                  

STATION/POSITION SKY/WX   TEMP    WIND        PRES    WAVE   SWELL
                          AIR SEA DIR/SP/G            HT/PER HT/PER
                          (F)     (DEG/KT/KT) (MB)    (FT/S) (FT/S)
CLEARWATER BEACH           77 79  360/  3/  3 1015.1F
MIDDLE TAMPA BAY           78     160/  6/  7 1015.2F
VENICE                     78 80  130/  6/  7 1015.5R

$$
FLZ066-069-070-075>078-162-262-165-265-150300-
SOUTHWEST FLORIDA AND KEYS
  
CITY           SKY/WX    TMP DP  RH WIND       PRES   REMARKS
PUNTA GORDA    CLOUDY    75  72  90 SE10      30.01S                  
FT MYERS       LGT RAIN  77  74  90 S3        29.99R                  
SOUTHWEST INTL MOCLDY    75  73  93 E3        30.00R                  
NAPLES         MOCLDY    78  72  81 E7        29.99R                  
MARCO ISLAND   FAIR      76  75  97 SE6       30.01R                  
IMMOKALEE      CLEAR     73  72  94 CALM      30.00R                  
MARATHON       FAIR      80  74  81 SE10      29.99S                  
KEY WEST NAS   PTCLDY    82  74  76 SE13      29.99R                  
KEY WEST INTL  FAIR      83  74  74 SE13      30.00R                  

STATION/POSITION SKY/WX   TEMP    WIND        PRES    WAVE   SWELL
                          AIR SEA DIR/SP/G            HT/PER HT/PER
                          (F)     (DEG/KT/KT) (MB)    (FT/S) (FT/S)
NAPLES                     80 81              1015.7R
26.0N   85.6W              74 81  340/ 25/ 33 1017.9
DRY TORTUGAS               81     110/  6/  7 1015.7R
SAND KEY                   81                 1015.6R
SOMBRERO KEY               81      90/ 12/ 15 1015.0R
LONG KEY                   81 82  120/ 11/ 13 1015.7R
MOLASSES REEF              81 82   80/  6/  8 1016.1R

$$
FLZ067-068-071>074-168-172>174-150300-
SOUTHEAST FLORIDA 
  
CITY           SKY/WX    TMP DP  RH WIND       PRES   REMARKS
W PALM BEACH   FAIR      80  75  84 SE10      30.01S                  
BOCA RATON     PTCLDY    81  75  83 SE6       30.01R                  
FT LAUDER-EXEC FAIR      81  77  88 SE8       30.01R                  
FT LAUDERDALE  FAIR      80  77  90 SE13      30.00R                  
POMPANO BEACH  FAIR      81  75  82 SE13      30.01R                  
PEMBROKE PINES FAIR      81  75  82 SE6       30.02R                  
OPA LOCKA      FAIR      80  76  87 SE6       30.01R                  
MIAMI          FAIR      80  76  87 E9        30.01R                  
WEST KENDALL   FAIR      80  74  81 SE6       30.00R                  
HOMESTEAD      FAIR      79  74  86 E5        30.00R                  

STATION/POSITION SKY/WX   TEMP    WIND        PRES    WAVE   SWELL
                          AIR SEA DIR/SP/G            HT/PER HT/PER
                          (F)     (DEG/KT/KT) (MB)    (FT/S) (FT/S)
PORT EVERGLADES            81     130/  9/ 12 1016.0R
VIRGINIA KEY               81 83   90/  8/ 11 1015.8R
LAKE WORTH                 81 81  140/ 13/ 15 1017.3R
FOWEY ROCKS                81 81  110/ 14/ 15 1016.6R
SETTLEMENT POINT           79     140/  6/  6 1016.9R

$$